SWA3314 KMDW-KMHT

Flight info

Callsign SWA3314
Flight time 1h 51m
Altitude 39000
Route LEWKE GIJ EVOTE NELLS KEEHO JHW Q82 PONCT ROZZE2
Aircraft B737/M-SDE2E3FGHIRWXY/LB1

Departure

Time 2026-04-26 16:50
Airport Chicago Midway International Airport (KMDW)

Arrival

Time 2026-04-26 18:41
Airport Manchester-Boston Regional Airport (KMHT)
Time Latitude Longitude Altitude Speed Heading
2026-04-26 16:19 41.78625 -87.74644 628 ft 0 kts 71°
2026-04-26 16:41 41.78622 -87.74656 628 ft 4 kts 71°
2026-04-26 16:42 41.78612 -87.74690 633 ft 4 kts 67°
2026-04-26 16:42 41.78601 -87.74722 636 ft 4 kts 56°
2026-04-26 16:42 41.78584 -87.74744 639 ft 4 kts 357°
2026-04-26 16:42 41.78577 -87.74743 635 ft 1 kts 314°
2026-04-26 16:45 41.78580 -87.74746 635 ft 4 kts 314°
2026-04-26 16:45 41.78607 -87.74784 632 ft 7 kts 314°
2026-04-26 16:46 41.78615 -87.74846 634 ft 8 kts 226°
2026-04-26 16:46 41.78569 -87.74904 634 ft 11 kts 221°
2026-04-26 16:46 41.78493 -87.74997 634 ft 18 kts 225°
2026-04-26 16:46 41.78393 -87.75125 636 ft 22 kts 224°
2026-04-26 16:47 41.78276 -87.75273 638 ft 24 kts 223°
2026-04-26 16:47 41.78157 -87.75424 630 ft 23 kts 223°
2026-04-26 16:47 41.78045 -87.75567 629 ft 22 kts 223°
2026-04-26 16:47 41.77962 -87.75669 636 ft 12 kts 222°
2026-04-26 16:48 41.77918 -87.75750 628 ft 9 kts 261°
2026-04-26 16:48 41.77918 -87.75754 628 ft 0 kts 262°
2026-04-26 16:48 41.77915 -87.75785 628 ft 10 kts 264°
2026-04-26 16:49 41.77912 -87.75888 630 ft 10 kts 273°
2026-04-26 16:49 41.77944 -87.75895 627 ft 0 kts 38°
2026-04-26 16:49 41.78032 -87.75787 627 ft 54 kts 42°
2026-04-26 16:49 41.78509 -87.75182 633 ft 131 kts 43°
2026-04-26 16:50 41.79290 -87.74197 952 ft 170 kts 45°
2026-04-26 16:50 41.80237 -87.73027 1551 ft 197 kts 43°
2026-04-26 16:50 41.81225 -87.71744 2492 ft 194 kts 47°
2026-04-26 16:50 41.81989 -87.70311 3546 ft 186 kts 62°
2026-04-26 16:51 41.82368 -87.68674 4575 ft 183 kts 79°
2026-04-26 16:51 41.82356 -87.66933 5365 ft 198 kts 92°
2026-04-26 16:51 41.82128 -87.64955 5612 ft 231 kts 96°
2026-04-26 16:51 41.81841 -87.62685 5898 ft 263 kts 96°
2026-04-26 16:52 41.81539 -87.60211 6719 ft 274 kts 96°
2026-04-26 16:52 41.81438 -87.59355 7034 ft 276 kts 95°
2026-04-26 16:52 41.80966 -87.55085 8666 ft 282 kts 96°
2026-04-26 16:52 41.80696 -87.52465 9626 ft 286 kts 97°
2026-04-26 16:53 41.80428 -87.49791 10444 ft 295 kts 97°
2026-04-26 16:53 41.80147 -87.46941 10704 ft 323 kts 97°
2026-04-26 16:53 41.79846 -87.43862 11145 ft 339 kts 97°
2026-04-26 16:53 41.79540 -87.40704 11917 ft 344 kts 97°
2026-04-26 16:54 41.79232 -87.37516 12826 ft 346 kts 97°
2026-04-26 16:54 41.78923 -87.34308 13893 ft 347 kts 96°
2026-04-26 16:54 41.78613 -87.31092 14805 ft 351 kts 96°
2026-04-26 16:54 41.78298 -87.27815 15600 ft 357 kts 96°
2026-04-26 16:55 41.77983 -87.24550 16397 ft 363 kts 96°
2026-04-26 16:55 41.77654 -87.21162 17199 ft 369 kts 96°
2026-04-26 16:55 41.77320 -87.17725 17995 ft 375 kts 96°
2026-04-26 16:55 41.76980 -87.14233 18748 ft 381 kts 96°
2026-04-26 16:56 41.76281 -87.07098 20138 ft 392 kts 96°
2026-04-26 16:56 41.76039 -87.03445 20826 ft 396 kts 91°
2026-04-26 16:56 41.75993 -86.99734 21515 ft 401 kts 88°
2026-04-26 16:57 41.76088 -86.95983 22197 ft 406 kts 86°
2026-04-26 16:57 41.76222 -86.92184 22852 ft 411 kts 86°
2026-04-26 16:57 41.76434 -86.84448 24095 ft 420 kts 87°
2026-04-26 16:58 41.76500 -86.80515 24638 ft 425 kts 88°
2026-04-26 16:58 41.76518 -86.79174 24819 ft 426 kts 88°
2026-04-26 16:58 41.76622 -86.68454 26191 ft 438 kts 89°
2026-04-26 16:59 41.76656 -86.64357 26705 ft 442 kts 89°
2026-04-26 16:59 41.76725 -86.56047 27691 ft 451 kts 89°
2026-04-26 17:00 41.76792 -86.47566 28605 ft 459 kts 89°
2026-04-26 17:00 41.76855 -86.38930 29450 ft 468 kts 89°
2026-04-26 17:00 41.76885 -86.34544 29870 ft 472 kts 89°
2026-04-26 17:01 41.76943 -86.31625 30131 ft 475 kts 86°
2026-04-26 17:01 41.77628 -86.25835 30547 ft 479 kts 72°
2026-04-26 17:01 41.78712 -86.21610 30930 ft 480 kts 68°
2026-04-26 17:01 41.79857 -86.17396 31268 ft 483 kts 70°
2026-04-26 17:02 41.80520 -86.14479 31439 ft 486 kts 74°
2026-04-26 17:02 41.81245 -86.10037 31756 ft 489 kts 79°
2026-04-26 17:02 41.81806 -86.05552 32187 ft 488 kts 80°
2026-04-26 17:02 41.82346 -86.01068 32663 ft 486 kts 79°
2026-04-26 17:03 41.82926 -85.96649 33071 ft 486 kts 78°
2026-04-26 17:03 41.83571 -85.92273 33417 ft 487 kts 77°
2026-04-26 17:03 41.84292 -85.87834 33796 ft 487 kts 76°
2026-04-26 17:03 41.85044 -85.83474 34188 ft 486 kts 76°
2026-04-26 17:04 41.85817 -85.79061 34508 ft 486 kts 76°
2026-04-26 17:04 41.86585 -85.74643 34791 ft 487 kts 76°
2026-04-26 17:04 41.87342 -85.70209 35091 ft 487 kts 76°
2026-04-26 17:04 41.88086 -85.65782 35426 ft 487 kts 77°
2026-04-26 17:05 41.88823 -85.61347 35754 ft 486 kts 77°
2026-04-26 17:05 41.89552 -85.56926 36046 ft 486 kts 77°
2026-04-26 17:05 41.90281 -85.52491 36317 ft 486 kts 77°
2026-04-26 17:05 41.91010 -85.48055 36609 ft 486 kts 77°
2026-04-26 17:06 41.91737 -85.43623 36913 ft 486 kts 77°
2026-04-26 17:06 41.92463 -85.39192 37189 ft 486 kts 77°
2026-04-26 17:06 41.93188 -85.34757 37445 ft 487 kts 77°
2026-04-26 17:06 41.93914 -85.30312 37700 ft 487 kts 77°
2026-04-26 17:07 41.94635 -85.25873 37987 ft 486 kts 78°
2026-04-26 17:07 41.95261 -85.21419 38265 ft 486 kts 82°
2026-04-26 17:07 41.95552 -85.16897 38515 ft 485 kts 89°
2026-04-26 17:07 41.95537 -85.12355 38794 ft 484 kts 93°
2026-04-26 17:08 41.95394 -85.07838 38999 ft 484 kts 94°
2026-04-26 17:08 41.95231 -85.03319 39166 ft 485 kts 94°
2026-04-26 17:08 41.95012 -84.94201 39170 ft 489 kts 92°
2026-04-26 17:09 41.94943 -84.86610 39162 ft 486 kts 91°
2026-04-26 17:09 41.94907 -84.76121 39182 ft 481 kts 91°
2026-04-26 17:10 41.94866 -84.67149 39183 ft 479 kts 91°
2026-04-26 17:10 41.94807 -84.58208 39182 ft 478 kts 91°
2026-04-26 17:11 41.94737 -84.49277 39188 ft 478 kts 91°
2026-04-26 17:11 41.94660 -84.40341 39190 ft 479 kts 91°
2026-04-26 17:12 41.94533 -84.26876 39213 ft 482 kts 92°
2026-04-26 17:13 41.94389 -84.13344 39212 ft 485 kts 92°
2026-04-26 17:14 41.94229 -83.99735 39210 ft 486 kts 92°
2026-04-26 17:14 41.94052 -83.86098 39205 ft 487 kts 92°
2026-04-26 17:15 41.93859 -83.72461 39209 ft 487 kts 92°
2026-04-26 17:16 41.93722 -83.63374 39216 ft 486 kts 92°
2026-04-26 17:16 41.93578 -83.54313 39222 ft 485 kts 92°
2026-04-26 17:17 41.93448 -83.45267 39222 ft 484 kts 91°
2026-04-26 17:17 41.93414 -83.36228 39223 ft 484 kts 91°
2026-04-26 17:18 41.93399 -83.27206 39220 ft 483 kts 91°
2026-04-26 17:18 41.93364 -83.18241 39219 ft 483 kts 91°
2026-04-26 17:19 41.93279 -83.04727 39221 ft 483 kts 91°
2026-04-26 17:19 41.93212 -82.95717 39219 ft 483 kts 91°
2026-04-26 17:20 41.93152 -82.88281 39221 ft 483 kts 91°
2026-04-26 17:20 41.93061 -82.77851 39220 ft 484 kts 91°
2026-04-26 17:21 41.92974 -82.68815 39225 ft 484 kts 91°
2026-04-26 17:22 41.92777 -82.50538 39225 ft 485 kts 91°
2026-04-26 17:22 41.92669 -82.41478 39227 ft 485 kts 91°
2026-04-26 17:23 41.92542 -82.32430 39236 ft 484 kts 88°
2026-04-26 17:23 41.92424 -82.23575 39227 ft 483 kts 88°
2026-04-26 17:24 41.92303 -82.14593 39226 ft 481 kts 88°
2026-04-26 17:24 41.92170 -82.05641 39228 ft 479 kts 88°
2026-04-26 17:25 41.92029 -81.96723 39226 ft 477 kts 88°
2026-04-26 17:25 41.91882 -81.87827 39227 ft 476 kts 88°
2026-04-26 17:26 41.91915 -81.79092 39222 ft 473 kts 82°
2026-04-26 17:26 41.92733 -81.70381 39225 ft 469 kts 75°
2026-04-26 17:27 41.93967 -81.61849 39227 ft 469 kts 75°
2026-04-26 17:27 41.95102 -81.53210 39217 ft 470 kts 77°
2026-04-26 17:28 41.96090 -81.44527 39223 ft 472 kts 78°
2026-04-26 17:28 41.97024 -81.35794 39219 ft 473 kts 78°
2026-04-26 17:29 41.97795 -81.28520 39213 ft 473 kts 78°
2026-04-26 17:29 41.98883 -81.18281 39224 ft 474 kts 78°
2026-04-26 17:30 41.99813 -81.09504 39224 ft 474 kts 78°
2026-04-26 17:30 42.00737 -81.00721 39220 ft 474 kts 78°
2026-04-26 17:31 42.01654 -80.91936 39214 ft 474 kts 78°
2026-04-26 17:31 42.02550 -80.83287 39213 ft 474 kts 78°
2026-04-26 17:32 42.03441 -80.74619 39213 ft 474 kts 78°
2026-04-26 17:32 42.04336 -80.65845 39212 ft 473 kts 78°
2026-04-26 17:33 42.05224 -80.57079 39211 ft 473 kts 78°
2026-04-26 17:34 42.06542 -80.43932 39215 ft 472 kts 79°
2026-04-26 17:34 42.07411 -80.35176 39213 ft 472 kts 79°
2026-04-26 17:35 42.08273 -80.26419 39214 ft 472 kts 79°
2026-04-26 17:35 42.09128 -80.17666 39214 ft 471 kts 79°
2026-04-26 17:36 42.09976 -80.08920 39210 ft 471 kts 79°
2026-04-26 17:36 42.10817 -80.00165 39215 ft 471 kts 79°
2026-04-26 17:37 42.11652 -79.91415 39215 ft 471 kts 79°
2026-04-26 17:37 42.12479 -79.82664 39209 ft 471 kts 79°
2026-04-26 17:38 42.13708 -79.69531 39215 ft 471 kts 79°
2026-04-26 17:38 42.14517 -79.60785 39211 ft 470 kts 79°
2026-04-26 17:39 42.15320 -79.52043 39216 ft 470 kts 80°
2026-04-26 17:39 42.16116 -79.43306 39209 ft 469 kts 80°
2026-04-26 17:40 42.16638 -79.37523 39210 ft 469 kts 80°
2026-04-26 17:40 42.17678 -79.25914 39210 ft 468 kts 80°
2026-04-26 17:41 42.18451 -79.17207 39215 ft 468 kts 80°
2026-04-26 17:41 42.19266 -79.08511 39207 ft 466 kts 78°
2026-04-26 17:42 42.20159 -79.01337 39214 ft 465 kts 76°
2026-04-26 17:42 42.21328 -78.92812 39209 ft 465 kts 76°
2026-04-26 17:43 42.22431 -78.84518 39212 ft 465 kts 77°
2026-04-26 17:43 42.23528 -78.75921 39212 ft 465 kts 77°
2026-04-26 17:44 42.24601 -78.67355 39224 ft 465 kts 77°
2026-04-26 17:44 42.25673 -78.58738 39225 ft 465 kts 78°
2026-04-26 17:45 42.26743 -78.50113 39226 ft 466 kts 78°
2026-04-26 17:45 42.27807 -78.41482 39218 ft 466 kts 78°
2026-04-26 17:46 42.28844 -78.33016 39222 ft 466 kts 78°
2026-04-26 17:46 42.29895 -78.24380 39219 ft 466 kts 78°
2026-04-26 17:47 42.30770 -78.17142 39223 ft 466 kts 78°
2026-04-26 17:47 42.31976 -78.07108 39236 ft 466 kts 78°
2026-04-26 17:48 42.33007 -77.98469 39226 ft 466 kts 78°
2026-04-26 17:48 42.34032 -77.89821 39242 ft 466 kts 78°
2026-04-26 17:49 42.35052 -77.81167 39232 ft 466 kts 78°
2026-04-26 17:49 42.36058 -77.72506 39231 ft 467 kts 79°
2026-04-26 17:50 42.37054 -77.63825 39241 ft 467 kts 79°
2026-04-26 17:50 42.38044 -77.55146 39232 ft 467 kts 79°
2026-04-26 17:51 42.39030 -77.46455 39235 ft 468 kts 79°
2026-04-26 17:51 42.40010 -77.37752 39234 ft 468 kts 79°
2026-04-26 17:52 42.40986 -77.29029 39240 ft 469 kts 79°
2026-04-26 17:52 42.41956 -77.20295 39233 ft 470 kts 79°
2026-04-26 17:53 42.42922 -77.11542 39243 ft 471 kts 79°
2026-04-26 17:54 42.44367 -76.98374 39238 ft 472 kts 79°
2026-04-26 17:54 42.45348 -76.89564 39235 ft 473 kts 79°
2026-04-26 17:55 42.46323 -76.80756 39242 ft 474 kts 79°
2026-04-26 17:55 42.47287 -76.71917 39226 ft 474 kts 80°
2026-04-26 17:56 42.48239 -76.63076 39225 ft 475 kts 80°
2026-04-26 17:57 42.50129 -76.45342 39227 ft 476 kts 80°
2026-04-26 17:57 42.51066 -76.36458 39220 ft 476 kts 80°
2026-04-26 17:58 42.52907 -76.18652 39220 ft 477 kts 80°
2026-04-26 17:59 42.54259 -76.05264 39214 ft 478 kts 80°
2026-04-26 17:59 42.55155 -75.96334 39202 ft 479 kts 80°
2026-04-26 18:00 42.56046 -75.87378 39195 ft 479 kts 80°
2026-04-26 18:00 42.56930 -75.78419 39190 ft 480 kts 80°
2026-04-26 18:01 42.57796 -75.69583 39188 ft 480 kts 80°
2026-04-26 18:01 42.58673 -75.60605 39185 ft 480 kts 80°
2026-04-26 18:02 42.59405 -75.53080 39185 ft 480 kts 80°
2026-04-26 18:02 42.60411 -75.42633 39184 ft 480 kts 81°
2026-04-26 18:03 42.61269 -75.33638 39188 ft 480 kts 81°
2026-04-26 18:03 42.62120 -75.24646 39191 ft 480 kts 80°
2026-04-26 18:04 42.62963 -75.15655 39197 ft 480 kts 81°
2026-04-26 18:05 42.64213 -75.02180 39204 ft 480 kts 81°
2026-04-26 18:05 42.65038 -74.93188 39194 ft 479 kts 81°
2026-04-26 18:06 42.65854 -74.84217 39195 ft 479 kts 81°
2026-04-26 18:06 42.66651 -74.75374 39193 ft 478 kts 81°
2026-04-26 18:07 42.67452 -74.66407 39192 ft 477 kts 81°
2026-04-26 18:07 42.68245 -74.57461 39194 ft 476 kts 81°
2026-04-26 18:08 42.69029 -74.48528 39194 ft 476 kts 81°
2026-04-26 18:08 42.69805 -74.39607 39189 ft 475 kts 81°
2026-04-26 18:09 42.70571 -74.30709 39188 ft 474 kts 81°
2026-04-26 18:09 42.71320 -74.21940 39183 ft 474 kts 81°
2026-04-26 18:10 42.72073 -74.13036 39184 ft 474 kts 81°
2026-04-26 18:10 42.72817 -74.04155 39176 ft 473 kts 81°
2026-04-26 18:11 42.73557 -73.95244 39171 ft 473 kts 82°
2026-04-26 18:11 42.74289 -73.86348 39060 ft 475 kts 82°
2026-04-26 18:11 42.74658 -73.81841 38427 ft 480 kts 82°
2026-04-26 18:12 42.74986 -73.77350 37796 ft 477 kts 83°
2026-04-26 18:12 42.75225 -73.72858 37140 ft 476 kts 85°
2026-04-26 18:12 42.75379 -73.68365 36421 ft 475 kts 86°
2026-04-26 18:12 42.75458 -73.63870 35692 ft 475 kts 87°
2026-04-26 18:13 42.75528 -73.59363 34877 ft 477 kts 86°
2026-04-26 18:13 42.75645 -73.54839 33995 ft 480 kts 85°
2026-04-26 18:13 42.75796 -73.50451 33029 ft 481 kts 85°
2026-04-26 18:13 42.75909 -73.47440 32419 ft 481 kts 85°
2026-04-26 18:14 42.76127 -73.41418 31610 ft 472 kts 85°
2026-04-26 18:14 42.76280 -73.36984 30957 ft 467 kts 85°
2026-04-26 18:14 42.76427 -73.32603 30327 ft 461 kts 85°
2026-04-26 18:14 42.76570 -73.28269 29607 ft 455 kts 85°
2026-04-26 18:15 42.76711 -73.23994 28948 ft 448 kts 85°
2026-04-26 18:15 42.76847 -73.19792 28305 ft 441 kts 85°
2026-04-26 18:15 42.76982 -73.15652 27674 ft 435 kts 85°
2026-04-26 18:15 42.77113 -73.11573 27050 ft 429 kts 85°
2026-04-26 18:16 42.77241 -73.07526 26435 ft 424 kts 85°
2026-04-26 18:16 42.77542 -72.99746 25733 ft 403 kts 83°
2026-04-26 18:16 42.77763 -72.95953 25122 ft 401 kts 83°
2026-04-26 18:17 42.77999 -72.92187 24564 ft 398 kts 83°
2026-04-26 18:17 42.78225 -72.88449 24006 ft 396 kts 83°
2026-04-26 18:17 42.78437 -72.84772 23373 ft 394 kts 83°
2026-04-26 18:17 42.78641 -72.81067 22719 ft 391 kts 83°
2026-04-26 18:18 42.78838 -72.77394 22138 ft 387 kts 83°
2026-04-26 18:18 42.79031 -72.73760 21537 ft 383 kts 83°
2026-04-26 18:18 42.79225 -72.70164 21002 ft 379 kts 83°
2026-04-26 18:18 42.79421 -72.66601 20419 ft 376 kts 83°
2026-04-26 18:19 42.79615 -72.63069 19852 ft 373 kts 83°
2026-04-26 18:19 42.79807 -72.59553 19283 ft 371 kts 83°
2026-04-26 18:19 42.79996 -72.56065 18725 ft 369 kts 83°
2026-04-26 18:19 42.80183 -72.52590 18093 ft 368 kts 83°
2026-04-26 18:20 42.80369 -72.49113 17348 ft 368 kts 84°
2026-04-26 18:20 42.80551 -72.45647 16742 ft 365 kts 84°
2026-04-26 18:20 42.80726 -72.42212 16146 ft 362 kts 84°
2026-04-26 18:20 42.80784 -72.41052 15950 ft 361 kts 84°
2026-04-26 18:21 42.81067 -72.35420 15013 ft 356 kts 84°
2026-04-26 18:21 42.81234 -72.32069 14441 ft 354 kts 84°
2026-04-26 18:21 42.81400 -72.28737 13876 ft 351 kts 84°
2026-04-26 18:21 42.81559 -72.25554 13276 ft 349 kts 84°
2026-04-26 18:22 42.81667 -72.23380 12874 ft 346 kts 84°
2026-04-26 18:22 42.81827 -72.20125 12305 ft 342 kts 84°
2026-04-26 18:22 42.81983 -72.16936 11755 ft 333 kts 85°
2026-04-26 18:22 42.82137 -72.13837 11247 ft 324 kts 85°
2026-04-26 18:23 42.82298 -72.10819 10724 ft 315 kts 84°
2026-04-26 18:23 42.82460 -72.07888 10377 ft 302 kts 85°
2026-04-26 18:23 42.82609 -72.05131 10235 ft 283 kts 85°
2026-04-26 18:23 42.82749 -72.02503 10129 ft 276 kts 85°
2026-04-26 18:24 42.82888 -71.99900 9991 ft 275 kts 85°
2026-04-26 18:24 42.83013 -71.97273 9574 ft 278 kts 86°
2026-04-26 18:24 42.83116 -71.94666 9222 ft 275 kts 86°
2026-04-26 18:24 42.83341 -71.92103 8907 ft 269 kts 75°
2026-04-26 18:25 42.84102 -71.89848 8728 ft 259 kts 56°
2026-04-26 18:25 42.85145 -71.87857 8549 ft 259 kts 53°
2026-04-26 18:25 42.86183 -71.85848 8347 ft 259 kts 56°
2026-04-26 18:25 42.86816 -71.84467 8222 ft 260 kts 58°
2026-04-26 18:26 42.87475 -71.82939 8083 ft 260 kts 59°
2026-04-26 18:26 42.88375 -71.80803 7899 ft 260 kts 59°
2026-04-26 18:26 42.89272 -71.78668 7696 ft 260 kts 59°
2026-04-26 18:26 42.90166 -71.76547 7492 ft 254 kts 59°
2026-04-26 18:27 42.91038 -71.74487 7313 ft 247 kts 59°
2026-04-26 18:27 42.91886 -71.72490 7128 ft 240 kts 59°
2026-04-26 18:27 42.92712 -71.70545 6934 ft 233 kts 59°
2026-04-26 18:27 42.93515 -71.68656 6769 ft 227 kts 59°
2026-04-26 18:28 42.94300 -71.66814 6606 ft 222 kts 59°
2026-04-26 18:28 42.95074 -71.64996 6440 ft 221 kts 59°
2026-04-26 18:28 42.95841 -71.63190 6262 ft 219 kts 59°
2026-04-26 18:28 42.96603 -71.61398 6102 ft 218 kts 59°
2026-04-26 18:29 42.97363 -71.59610 5926 ft 217 kts 59°
2026-04-26 18:29 42.98118 -71.57835 5775 ft 216 kts 59°
2026-04-26 18:29 42.98871 -71.56061 5621 ft 216 kts 60°
2026-04-26 18:29 42.99617 -71.54300 5500 ft 212 kts 59°
2026-04-26 18:30 43.00361 -71.52547 5296 ft 215 kts 59°
2026-04-26 18:30 43.01115 -71.50773 5107 ft 216 kts 59°
2026-04-26 18:30 43.01869 -71.49002 4912 ft 216 kts 58°
2026-04-26 18:30 43.02767 -71.47361 4703 ft 214 kts 49°
2026-04-26 18:31 43.03780 -71.45877 4502 ft 213 kts 45°
2026-04-26 18:31 43.04852 -71.44481 4322 ft 213 kts 42°
2026-04-26 18:31 43.05929 -71.43207 4128 ft 212 kts 40°
2026-04-26 18:31 43.07067 -71.41908 3919 ft 212 kts 40°
2026-04-26 18:32 43.08197 -71.40624 3731 ft 211 kts 40°
2026-04-26 18:32 43.09298 -71.39299 3564 ft 212 kts 42°
2026-04-26 18:32 43.10396 -71.37943 3353 ft 213 kts 43°
2026-04-26 18:32 43.11493 -71.36576 3164 ft 213 kts 43°
2026-04-26 18:33 43.12586 -71.35216 3027 ft 211 kts 43°
2026-04-26 18:33 43.13667 -71.33884 3019 ft 207 kts 43°
2026-04-26 18:33 43.14699 -71.32613 2992 ft 191 kts 43°
2026-04-26 18:33 43.15606 -71.31395 2991 ft 177 kts 50°
2026-04-26 18:34 43.16291 -71.30017 2997 ft 175 kts 68°
2026-04-26 18:34 43.16523 -71.28381 3000 ft 180 kts 97°
2026-04-26 18:34 43.16036 -71.26795 3023 ft 184 kts 117°
2026-04-26 18:34 43.15477 -71.25201 3004 ft 188 kts 118°
2026-04-26 18:35 43.14530 -71.24052 3002 ft 185 kts 162°
2026-04-26 18:35 43.13293 -71.24270 3021 ft 185 kts 208°
2026-04-26 18:35 43.12107 -71.25077 2984 ft 193 kts 195°
2026-04-26 18:35 43.10814 -71.25468 2985 ft 189 kts 188°
2026-04-26 18:36 43.09534 -71.25723 3008 ft 185 kts 187°
2026-04-26 18:36 43.08277 -71.26023 3013 ft 182 kts 193°
2026-04-26 18:36 43.07139 -71.26750 2881 ft 183 kts 215°
2026-04-26 18:36 43.06178 -71.27911 2771 ft 185 kts 223°
2026-04-26 18:37 43.05303 -71.29121 2964 ft 169 kts 224°
2026-04-26 18:37 43.04486 -71.30234 2738 ft 166 kts 224°
2026-04-26 18:37 43.03651 -71.31350 2570 ft 168 kts 220°
2026-04-26 18:37 43.02808 -71.32425 2376 ft 164 kts 221°
2026-04-26 18:38 43.01987 -71.33467 2182 ft 156 kts 222°
2026-04-26 18:38 43.01210 -71.34459 1908 ft 151 kts 220°
2026-04-26 18:38 43.00436 -71.35426 1659 ft 150 kts 220°
2026-04-26 18:38 42.99679 -71.36348 1446 ft 145 kts 220°
2026-04-26 18:39 42.98950 -71.37276 1193 ft 144 kts 221°
2026-04-26 18:39 42.98211 -71.38204 1005 ft 143 kts 220°
2026-04-26 18:39 42.97479 -71.39117 834 ft 142 kts 220°
2026-04-26 18:39 42.96748 -71.40036 740 ft 143 kts 220°
2026-04-26 18:40 42.96015 -71.40941 631 ft 141 kts 220°
2026-04-26 18:40 42.95290 -71.41839 479 ft 141 kts 220°
2026-04-26 18:40 42.94569 -71.42737 339 ft 139 kts 221°
2026-04-26 18:40 42.93878 -71.43599 230 ft 127 kts 223°
2026-04-26 18:41 42.93340 -71.44268 225 ft 75 kts 222°
2026-04-26 18:41 42.93072 -71.44605 225 ft 40 kts 223°
2026-04-26 18:41 42.92968 -71.44729 226 ft 18 kts 212°
2026-04-26 18:41 42.92868 -71.44696 226 ft 0 kts 131°
2026-04-26 18:43 42.92865 -71.44691 226 ft 1 kts 131°
2026-04-26 18:43 42.92856 -71.44677 227 ft 3 kts 131°
2026-04-26 18:43 42.92841 -71.44654 228 ft 3 kts 131°
2026-04-26 18:43 42.92822 -71.44625 229 ft 6 kts 131°
2026-04-26 18:44 42.92793 -71.44566 229 ft 9 kts 111°
2026-04-26 18:44 42.92772 -71.44468 230 ft 12 kts 107°
2026-04-26 18:44 42.92747 -71.44351 229 ft 13 kts 106°
2026-04-26 18:44 42.92718 -71.44225 231 ft 15 kts 112°
2026-04-26 18:45 42.92631 -71.44139 232 ft 16 kts 154°
2026-04-26 18:45 42.92557 -71.44078 231 ft 13 kts 121°
2026-04-26 18:45 42.92580 -71.43943 232 ft 17 kts 68°
2026-04-26 18:45 42.92634 -71.43780 233 ft 22 kts 66°
2026-04-26 18:46 42.92689 -71.43605 233 ft 12 kts 66°
2026-04-26 18:46 42.92744 -71.43534 232 ft 11 kts
2026-04-26 18:46 42.92793 -71.43557 231 ft 0 kts 334°
2026-04-26 18:46 42.92796 -71.43559 233 ft 0 kts 334°
2026-04-26 18:47 42.92799 -71.43561 233 ft 0 kts 334°
2026-04-26 18:47 42.92803 -71.43564 232 ft 3 kts 334°
2026-04-26 18:47 42.92815 -71.43595 231 ft 5 kts 264°
2026-04-26 18:48 42.92804 -71.43637 231 ft 3 kts 248°
2026-04-26 18:48 42.92801 -71.43646 234 ft 0 kts 247°
2026-04-26 18:48 42.92800 -71.43650 233 ft 0 kts 247°